Date,TemperatureHighF,TemperatureAvgF,TemperatureLowF,DewpointHighF,DewpointAvgF,DewpointLowF,HumidityHigh,HumidityAvg,HumidityLow,PressureMaxIn,PressureMinIn,WindSpeedMaxMPH,WindSpeedAvgMPH,GustSpeedMaxMPH,PrecipitationSumIn
2013-1-1,57.4,51.8,46.9,48.8,45.8,43.2,88,80,71,30.09,30.00,4,1,11,0.00
2013-1-2,59.4,51.1,44.1,51.4,46.4,40.7,95,84,70,30.30,30.09,4,1,7,0.17
2013-1-3,61.9,50.8,44.8,55.3,47.6,37.7,99,89,69,30.60,30.31,7,1,20,0.79
2013-1-4,59.4,51.8,43.7,50.5,45.0,37.7,86,78,67,30.58,30.41,4,1,11,0.00
2013-1-5,68.0,55.8,44.4,51.9,42.4,34.6,82,61,46,30.45,30.29,5,1,10,0.00
2013-1-6,74.7,58.4,46.8,52.3,44.1,38.0,79,61,36,30.34,30.27,4,0,7,0.00
2013-1-7,72.3,59.8,47.1,48.0,38.3,34.4,66,46,30,30.28,30.19,4,1,9,0.00
2013-1-8,69.3,56.5,46.2,49.5,41.6,34.6,77,58,41,30.31,30.25,5,1,9,0.00
2013-1-9,62.8,52.5,45.3,49.8,43.8,35.5,89,73,48,30.23,30.13,6,2,11,0.00
2013-1-10,63.0,56.5,48.6,53.5,48.4,43.5,95,75,59,30.15,30.09,8,2,17,0.00
2013-1-11,58.5,50.1,42.1,50.0,45.2,37.1,94,84,69,30.15,30.09,6,1,14,0.00
2013-1-12,59.4,50.7,39.7,51.1,45.1,35.9,90,81,69,30.11,29.95,5,1,8,0.00
2013-1-13,53.2,48.1,45.9,46.8,41.8,38.4,89,79,66,29.90,29.77,9,2,17,0.01
2013-1-14,52.0,47.4,41.7,44.8,41.6,38.3,91,80,71,29.99,29.90,5,1,11,0.00
2013-1-15,54.0,48.2,44.6,45.9,42.4,40.1,87,80,68,29.96,29.78,11,2,25,0.00
2013-1-16,57.4,50.9,47.3,51.0,46.4,40.5,94,85,74,29.92,29.65,9,3,20,0.00
2013-1-17,57.2,48.5,45.3,50.9,43.8,39.4,94,84,65,29.81,29.65,4,1,9,0.00
2013-1-18,59.0,54.5,48.0,54.8,50.9,42.6,93,88,76,29.78,29.60,6,1,13,0.01
2013-1-19,60.8,54.0,49.5,54.6,51.7,48.1,98,92,63,29.56,29.10,11,2,20,0.21
2013-1-20,49.8,47.3,43.2,47.0,43.0,38.3,99,85,73,29.60,29.13,6,2,14,0.19
2013-1-21,53.4,50.2,48.0,50.5,44.3,38.3,95,80,68,29.82,29.56,8,2,14,0.00
2013-1-22,56.7,47.8,39.0,44.9,39.2,32.8,93,73,51,29.85,29.56,8,2,14,0.18
2013-1-23,47.3,44.3,39.9,42.5,37.1,33.3,99,76,67,29.81,29.54,14,3,28,0.18
2013-1-24,49.3,45.2,43.0,48.7,43.1,33.8,99,93,61,29.75,29.56,9,1,16,0.32
2013-1-25,56.1,48.1,41.4,45.0,40.5,36.3,87,75,62,29.92,29.78,6,1,11,0.05
2013-1-26,57.2,48.2,41.2,51.5,43.5,33.6,95,84,66,30.09,29.73,6,1,11,0.06
2013-1-27,64.4,53.9,39.4,60.6,45.3,38.9,99,75,55,30.08,29.87,4,1,9,0.00
2013-1-28,59.9,51.4,44.2,51.1,45.3,39.9,99,81,62,30.30,29.84,6,1,12,0.48
2013-1-29,65.8,53.9,41.4,54.8,46.7,36.9,87,77,63,30.36,30.29,4,1,8,0.00
2013-1-30,69.8,60.4,44.2,45.2,37.9,31.2,86,44,31,30.34,30.27,4,2,8,0.00
2013-1-31,73.8,61.8,51.6,54.9,49.3,42.5,82,65,47,30.44,30.33,4,0,7,0.00
2013-2-1,72.7,63.1,52.3,57.4,46.0,40.5,76,55,41,30.34,29.81,5,2,11,0.00
2013-2-2,56.5,48.4,46.4,48.9,40.8,38.4,84,75,67,29.85,29.64,10,2,22,0.00
2013-2-3,55.6,46.9,39.0,38.4,32.1,28.4,77,57,43,30.28,29.86,9,1,21,0.00
2013-2-4,56.7,51.1,39.4,44.8,41.6,34.6,89,71,57,30.35,30.27,7,2,12,0.00
2013-2-5,62.4,55.6,45.7,50.9,46.3,36.0,83,71,58,30.27,29.95,8,2,14,0.00
2013-2-6,53.1,47.9,45.1,47.4,39.2,37.2,81,72,59,29.89,29.77,11,2,17,0.00
2013-2-7,54.9,47.5,43.5,40.0,33.1,24.8,86,58,42,30.03,29.81,8,2,22,0.00
2013-2-8,46.8,44.1,41.4,39.6,38.2,31.9,89,80,62,30.03,29.85,4,1,9,0.02
2013-2-9,53.2,42.6,36.3,39.7,33.9,27.7,86,72,56,30.12,29.98,4,1,9,0.04
2013-2-10,60.6,53.7,45.7,45.1,41.9,37.0,82,65,44,30.07,29.77,7,2,13,0.04
2013-2-11,55.9,49.6,45.0,40.0,36.9,33.5,81,62,48,29.71,29.60,8,2,16,0.02
2013-2-12,57.0,47.5,41.5,45.1,38.3,32.7,85,71,54,29.93,29.64,9,2,25,0.06
2013-2-13,58.3,49.6,44.2,47.6,42.1,38.2,89,76,56,30.10,29.90,5,2,10,0.00
2013-2-14,59.7,49.6,41.9,50.7,43.9,39.5,93,82,62,30.17,30.09,5,1,10,0.00
2013-2-15,62.2,53.7,42.4,50.2,44.4,40.0,95,72,53,30.15,30.07,7,1,13,0.00
2013-2-16,61.7,51.4,43.0,48.2,44.3,40.1,94,78,59,30.16,30.08,4,1,8,0.00
2013-2-17,53.1,50.1,43.5,49.4,47.0,38.8,95,89,74,30.08,29.92,3,0,6,0.00
2013-2-18,60.3,52.8,46.8,55.9,50.6,46.0,99,92,78,29.95,29.86,4,1,8,0.01
2013-2-19,62.6,52.8,44.6,50.2,45.7,40.6,99,78,59,29.97,29.90,7,1,13,0.00
2013-2-20,59.0,50.8,43.3,48.7,43.5,36.8,93,76,63,29.93,29.86,5,1,8,0.00
2013-2-21,61.0,53.3,44.2,52.2,48.1,40.9,90,83,69,29.87,29.70,4,1,9,0.00
2013-2-22,59.9,52.0,48.6,53.2,48.5,44.3,99,88,69,29.66,29.51,8,1,14,0.15
2013-2-23,48.9,39.5,35.1,47.8,37.3,32.6,98,92,77,29.83,29.36,8,1,17,0.44
2013-2-24,50.4,42.4,37.4,38.2,33.8,31.0,86,72,60,29.90,29.83,8,1,14,0.48
2013-2-25,48.6,39.4,34.2,42.5,34.6,30.4,98,84,58,30.05,29.92,4,1,8,0.09
2013-2-26,48.9,40.3,32.5,40.6,35.6,30.5,97,83,63,30.14,30.01,4,1,8,0.11
2013-2-27,55.8,45.8,32.0,44.1,37.5,30.2,94,74,56,30.14,30.02,4,1,9,0.01
2013-2-28,53.2,47.3,45.0,48.9,45.2,37.5,97,92,75,29.99,29.77,12,3,21,0.66
2013-3-1,50.9,46.0,42.4,48.1,44.7,41.9,99,95,88,29.85,29.66,6,1,17,0.22
2013-3-2,63.1,52.5,43.0,50.9,43.5,36.2,93,72,54,30.09,29.90,6,1,10,0.01
2013-3-3,62.8,53.2,41.0,47.3,43.0,38.0,93,71,44,30.06,29.95,7,1,12,0.00
2013-3-4,65.1,57.3,48.6,52.0,49.0,46.3,92,74,59,29.92,29.65,11,3,23,0.04
2013-3-5,65.8,59.6,54.7,54.0,51.1,48.4,96,74,59,29.62,29.32,9,3,18,0.22
2013-3-6,68.7,60.1,50.7,53.7,51.8,49.8,99,75,59,29.59,29.28,7,2,13,0.11
2013-3-7,71.8,61.1,54.7,56.0,52.6,50.0,90,75,53,29.76,29.59,8,2,14,0.01
2013-3-8,70.9,61.2,54.1,55.7,49.3,46.4,90,66,46,29.82,29.64,11,2,21,0.01
2013-3-9,69.3,59.9,53.8,54.0,48.6,44.7,87,68,47,29.80,29.72,9,2,15,0.00
2013-3-10,66.0,58.7,51.8,51.1,46.0,41.7,88,64,48,29.73,29.65,8,3,14,0.00
2013-3-11,63.9,56.3,50.0,51.6,46.9,43.1,93,72,54,29.72,29.65,8,2,21,0.00
2013-3-12,61.9,54.4,46.8,50.3,45.3,38.9,85,72,58,29.65,29.57,8,2,13,0.00
2013-3-13,51.6,39.5,37.4,48.2,39.0,37.1,99,98,83,29.61,29.38,11,1,23,1.11
2013-3-14,52.9,47.1,41.0,39.7,35.4,32.6,95,64,48,29.82,29.64,9,2,27,0.00
2013-3-15,53.6,46.6,37.0,39.7,34.3,26.2,75,62,50,30.07,29.85,7,2,15,0.00
2013-3-16,57.6,49.3,37.0,44.2,41.9,24.8,90,76,54,30.05,29.85,8,2,18,0.00
2013-3-17,61.7,56.5,45.7,52.9,46.7,37.8,93,70,57,29.80,29.51,5,1,9,0.25
2013-3-18,61.7,54.6,45.3,52.6,46.3,36.0,99,75,50,29.78,29.48,6,2,11,0.12
2013-3-19,68.0,56.8,43.2,53.9,48.6,40.7,95,75,50,29.76,29.58,8,1,11,0.00
2013-3-20,64.6,52.0,44.4,54.9,48.7,42.8,98,89,64,30.10,29.56,6,1,12,0.19
2013-3-21,64.0,55.1,43.2,58.2,50.2,42.1,97,84,69,30.11,29.96,5,1,11,0.00
2013-3-22,72.7,61.3,45.0,54.6,48.2,37.5,89,64,48,29.91,29.73,5,1,11,0.00
2013-3-23,64.8,56.2,52.3,53.1,49.0,45.7,90,77,63,29.71,29.59,4,1,8,0.00
2013-3-24,60.3,53.1,48.6,53.6,49.3,45.8,95,87,76,29.64,29.53,5,1,10,0.00
2013-3-25,63.9,59.1,51.8,51.2,47.5,43.0,86,66,50,29.77,29.63,7,2,14,0.00
2013-3-26,65.8,60.5,54.7,54.9,52.7,48.6,94,76,62,29.71,29.62,5,2,11,0.17
2013-3-27,68.9,60.1,53.1,56.7,51.4,47.9,93,74,54,29.71,29.59,6,1,11,0.01
2013-3-28,69.1,59.5,52.2,56.7,52.3,47.9,96,78,57,29.87,29.66,6,1,11,0.00
2013-3-29,65.8,59.9,52.2,53.8,51.1,47.5,85,73,63,29.88,29.73,8,2,17,0.00
2013-3-30,68.2,62.0,57.2,53.0,48.8,43.2,80,62,45,29.85,29.66,11,3,24,0.00
2013-3-31,69.6,59.0,53.2,49.7,46.6,43.0,82,64,43,29.84,29.66,8,2,13,0.00
2013-4-1,64.8,56.8,52.3,56.0,51.9,45.7,99,84,67,29.66,29.44,7,1,17,0.28
2013-4-2,66.4,55.6,47.1,53.3,47.7,42.7,92,76,55,29.80,29.64,8,1,12,0.00
2013-4-3,68.9,61.0,48.7,50.5,44.1,40.6,77,55,41,29.81,29.60,7,2,14,0.00
2013-4-4,63.0,57.1,52.3,55.1,50.8,40.2,93,80,53,29.62,29.49,5,2,9,0.08
2013-4-5,65.8,55.5,49.1,58.5,50.5,46.1,95,84,59,29.71,29.61,4,2,9,0.07
2013-4-6,56.3,45.9,40.8,47.6,41.2,37.0,99,84,65,29.94,29.75,4,1,13,1.29
2013-4-7,60.6,53.2,44.8,48.8,44.1,38.2,88,72,46,30.03,29.94,6,2,11,0.00
2013-4-8,64.8,57.4,45.1,52.7,47.8,43.5,97,71,55,29.91,29.83,6,1,12,0.00
2013-4-9,69.6,62.1,49.6,49.2,45.7,42.0,80,56,44,29.96,29.86,7,2,15,0.00
2013-4-10,74.3,65.1,50.5,56.0,50.7,44.6,80,60,48,30.06,29.94,5,2,12,0.00
2013-4-11,75.6,67.9,54.9,59.0,55.6,49.1,90,65,52,30.03,29.87,6,1,14,0.00
2013-4-12,73.8,64.7,53.8,54.4,49.5,42.6,76,58,39,30.09,29.92,6,2,11,0.00
2013-4-13,78.8,66.0,51.3,57.1,48.8,40.3,71,55,35,30.25,30.10,4,1,9,0.00
2013-4-14,76.1,69.4,56.1,47.0,41.5,33.5,66,37,31,30.26,30.22,10,2,23,0.00
2013-4-15,80.1,71.2,56.8,52.8,46.8,36.2,57,42,35,30.23,30.15,5,2,10,0.00
2013-4-16,79.7,69.2,56.5,61.5,50.4,32.0,84,54,31,30.20,30.15,4,1,10,0.00
2013-4-17,81.3,70.5,54.7,60.3,49.8,41.4,69,49,35,30.22,30.16,4,1,9,0.00
2013-4-18,79.2,69.2,55.2,58.8,50.0,44.1,68,51,36,30.19,30.12,5,2,9,0.00
2013-4-19,71.6,65.2,54.7,61.2,54.6,46.6,80,69,53,30.18,30.09,4,2,9,0.00
2013-4-20,64.4,57.8,46.6,50.3,46.9,40.6,87,67,58,30.20,30.11,5,1,10,0.00
2013-4-21,66.9,58.4,46.8,53.6,49.3,44.8,95,73,49,30.13,30.03,4,1,8,0.00
2013-4-22,63.1,55.9,46.2,57.9,50.6,44.6,96,83,69,30.10,30.01,5,1,9,0.08
2013-4-23,70.2,61.4,45.7,55.2,48.4,41.8,97,65,44,30.19,30.09,4,1,11,0.00
2013-4-24,74.8,62.5,46.9,56.3,50.8,43.0,88,67,49,30.20,30.09,6,1,17,0.00
2013-4-25,60.8,57.3,55.9,56.9,54.9,48.8,99,92,65,30.09,29.91,8,2,18,0.50
2013-4-26,65.7,58.8,55.4,65.0,58.0,55.1,99,97,88,29.94,29.81,6,1,11,0.83
2013-4-27,56.8,54.3,50.5,56.6,54.0,50.3,99,99,99,29.83,29.67,4,0,12,0.24
2013-4-28,58.8,55.7,50.5,58.6,55.4,50.3,99,99,98,29.80,29.63,8,2,16,0.59
2013-4-29,56.7,54.0,52.0,56.4,53.7,51.7,99,99,99,29.85,29.71,4,1,10,0.61
2013-4-30,67.6,58.4,43.0,62.7,51.9,42.7,99,81,54,30.00,29.85,4,1,10,0.01
2013-5-1,67.5,60.3,47.7,63.3,53.9,46.9,99,80,66,30.05,30.00,4,1,8,0.00
2013-5-2,66.4,60.0,49.6,59.7,54.9,48.8,99,84,73,30.06,29.99,4,1,10,0.00
2013-5-3,73.2,61.5,51.3,57.9,50.8,44.1,96,70,44,30.10,30.02,6,0,11,0.00
2013-5-4,70.0,60.3,50.9,59.1,52.2,47.4,92,75,48,30.15,30.08,5,1,10,0.00
2013-5-5,69.8,65.1,52.7,57.2,51.1,45.2,94,61,48,30.15,30.10,4,1,10,0.00
2013-5-6,79.7,70.0,51.3,61.6,56.6,47.6,90,64,48,30.15,30.09,4,1,8,0.00
2013-5-7,80.1,70.6,55.6,60.0,53.8,45.6,82,57,38,30.09,30.02,4,1,8,0.00
2013-5-8,87.8,77.3,60.8,64.4,55.6,50.6,74,49,37,30.05,29.98,3,1,7,0.00
2013-5-9,81.1,72.0,61.3,60.9,55.6,47.3,75,58,37,30.03,29.97,5,1,10,0.00
2013-5-10,77.4,68.6,57.0,64.7,55.7,45.6,89,64,47,30.12,29.98,6,1,10,0.00
2013-5-11,71.1,63.0,53.8,61.1,57.2,49.3,97,82,67,30.16,30.08,4,1,9,0.02
2013-5-12,71.1,63.0,52.5,61.9,54.3,45.0,99,74,57,30.19,30.12,4,1,9,0.00
2013-5-13,74.5,66.1,48.9,60.6,55.3,44.9,94,69,56,30.19,30.07,4,1,8,0.00
2013-5-14,74.1,67.0,54.0,64.6,58.7,53.1,98,76,57,30.08,29.77,6,2,11,0.00
2013-5-15,68.7,63.8,54.9,61.6,58.9,53.2,96,84,72,29.71,29.51,4,1,9,0.00
2013-5-16,64.0,55.7,48.4,58.7,51.3,43.6,99,86,63,29.64,29.47,4,1,12,0.31
2013-5-17,66.7,59.1,46.9,57.6,51.9,46.1,99,78,58,29.69,29.58,6,1,14,0.13
2013-5-18,67.5,59.0,55.0,57.3,51.3,41.5,99,78,43,29.91,29.65,8,1,16,0.28
2013-5-19,68.5,59.0,50.7,56.4,49.6,42.9,87,72,52,30.07,29.90,4,1,9,0.00
2013-5-20,69.3,58.8,49.8,59.5,51.3,46.4,95,77,58,30.08,30.02,4,0,8,0.02
2013-5-21,64.6,57.5,51.8,55.4,50.1,43.4,93,76,64,30.06,29.86,3,0,8,0.01
2013-5-22,70.2,62.7,54.3,58.8,53.1,48.0,92,72,55,29.95,29.89,4,1,11,0.00
2013-5-23,70.7,62.3,52.0,58.8,52.5,47.6,94,71,54,29.97,29.90,4,1,11,0.00
2013-5-24,70.2,60.3,50.5,52.7,46.2,39.8,87,61,37,30.05,29.94,5,1,11,0.00
2013-5-25,68.4,59.9,48.6,53.0,46.5,40.5,96,63,39,30.10,29.98,4,1,14,0.00
2013-5-26,70.0,61.3,47.3,53.7,51.2,45.0,94,70,54,30.12,29.99,6,2,11,0.00
2013-5-27,64.8,59.7,50.7,60.3,54.5,43.4,98,83,58,30.00,29.83,6,1,11,0.01
2013-5-28,73.2,64.3,52.7,62.2,55.6,51.3,99,75,51,29.86,29.77,3,1,8,0.02
2013-5-29,69.8,59.4,52.7,53.5,48.9,43.6,88,70,42,29.90,29.83,4,1,8,0.00
2013-5-30,68.2,59.8,50.0,53.9,49.5,44.1,92,70,52,29.97,29.87,4,1,11,0.07
2013-5-31,71.2,62.1,55.2,54.9,50.5,47.9,88,66,50,30.00,29.88,4,1,12,0.07
2013-6-1,73.2,64.7,56.3,56.0,51.4,42.1,90,63,47,30.08,29.97,4,2,9,0.02
2013-6-2,77.5,65.4,54.0,56.8,48.6,42.2,77,56,38,30.09,30.04,4,1,9,0.00
2013-6-3,78.6,65.7,53.8,55.9,50.4,45.4,79,59,41,30.09,30.03,4,1,8,0.00
2013-6-4,79.2,71.1,54.9,61.3,52.9,49.5,83,54,42,30.06,29.99,5,1,12,0.00
2013-6-5,79.0,69.5,56.8,57.8,51.2,46.8,74,53,40,30.03,29.96,8,2,17,0.00
2013-6-6,81.9,67.6,49.8,57.3,49.6,21.2,71,54,32,30.07,29.99,8,1,8,0.00
2013-6-7,78.3,70.6,58.1,61.1,56.1,49.1,93,61,45,30.09,29.99,6,2,12,0.00
2013-6-8,74.7,66.4,60.1,67.4,56.3,47.6,99,73,40,30.00,29.91,8,1,19,0.13
2013-6-9,75.6,69.2,56.7,59.4,55.1,50.1,96,62,46,29.93,29.85,4,1,10,0.00
2013-6-10,77.9,69.6,60.8,62.2,56.7,51.4,87,65,46,30.07,29.92,4,1,11,0.00
2013-6-11,84.6,75.6,59.4,66.5,58.3,51.4,77,56,42,30.11,30.05,4,1,8,0.00
2013-6-12,84.2,76.4,63.3,61.7,57.4,51.7,69,53,43,30.17,30.11,5,1,10,0.00
2013-6-13,90.1,79.1,64.9,63.1,57.5,52.5,73,49,35,30.15,30.07,5,1,10,0.00
2013-6-14,87.3,73.8,62.6,67.1,58.3,53.3,78,60,41,30.10,30.03,6,1,11,0.00
2013-6-15,90.0,80.2,64.4,60.5,53.5,20.9,61,41,29,30.07,30.02,6,2,11,0.00
2013-6-16,94.1,83.2,73.0,59.5,54.0,46.1,54,37,23,30.05,29.92,9,3,21,0.00
2013-6-17,95.4,86.2,72.0,70.4,62.6,47.5,95,46,31,29.93,29.80,10,3,18,0.00
2013-6-18,74.8,70.5,65.7,69.3,67.2,63.0,98,89,79,29.86,29.78,8,3,15,0.00
2013-6-19,78.8,70.8,58.5,67.9,60.3,54.8,99,71,47,30.01,29.85,4,1,9,0.00
2013-6-20,80.2,72.4,57.2,65.3,61.2,49.3,87,69,52,30.10,29.99,5,1,8,0.00
2013-6-21,81.9,72.8,60.4,68.1,62.7,51.0,91,72,50,30.14,30.05,5,1,9,0.00
2013-6-22,81.0,73.5,61.0,69.1,63.7,54.8,94,73,50,30.17,30.11,5,1,8,0.00
2013-6-23,84.4,74.9,58.3,67.9,63.0,53.5,88,68,42,30.17,30.11,4,1,8,0.00
2013-6-24,76.8,68.7,61.0,65.6,61.5,57.1,96,78,65,30.22,30.16,4,1,7,0.00
2013-6-25,77.4,67.8,59.2,64.8,60.8,57.2,95,79,62,30.22,30.18,4,1,7,0.00
2013-6-26,78.1,67.5,59.9,64.2,60.5,57.0,93,79,61,30.23,30.19,4,1,8,0.00
2013-6-27,80.1,72.0,57.4,68.6,59.6,5.7,93,67,10,30.23,30.15,4,1,101,0.00
2013-6-28,61.2,33.8,32.0,56.3,56.3,56.3,84,5,84,30.23,30.19,0,0,3,0.00
2013-6-29,81.9,62.4,32.0,63.3,57.7,54.2,72,41,44,30.27,30.19,4,1,9,0.00
2013-6-30,82.8,74.4,60.1,66.7,62.7,53.7,84,68,53,30.22,30.08,4,1,8,0.00
2013-7-1,87.1,76.0,62.6,69.6,66.7,59.5,97,74,53,30.09,29.99,4,1,11,0.00
2013-7-2,85.5,74.5,62.8,68.2,65.6,60.0,93,75,55,30.06,30.00,5,1,9,0.00
2013-7-3,83.7,75.2,63.7,70.9,68.2,62.2,97,80,62,30.12,30.02,5,1,11,0.00
2013-7-4,82.6,74.9,64.8,72.8,66.9,62.8,97,77,62,30.20,30.11,4,1,7,0.00
2013-7-5,94.1,78.8,63.3,71.6,65.0,59.2,98,66,37,30.22,30.17,4,1,8,0.00
2013-7-6,120.4,79.7,62.2,77.4,62.8,55.3,89,58,27,30.22,30.17,97,4,8,0.00
2013-7-7,87.1,77.7,32.0,72.6,64.6,55.8,73,54,41,30.19,30.13,4,1,9,0.00
2013-7-8,92.3,83.5,70.0,70.2,63.8,55.9,71,52,40,30.17,30.11,4,1,10,0.00
2013-7-9,89.4,81.7,67.1,71.1,65.2,57.0,78,58,44,30.15,30.04,4,1,10,0.00
2013-7-10,89.6,81.3,67.3,72.3,66.8,61.3,82,63,47,30.06,29.93,4,1,10,0.00
2013-7-11,88.7,80.1,70.7,74.2,68.3,60.6,87,68,49,29.99,29.91,5,1,10,0.00
2013-7-12,93.0,82.2,67.3,72.9,65.7,58.3,90,59,37,30.05,29.97,5,1,11,0.00
2013-7-13,84.6,78.2,70.2,69.2,61.5,54.9,77,57,42,30.09,30.03,6,1,11,0.00
2013-7-14,89.2,80.8,67.3,73.0,65.8,54.9,72,61,46,30.13,30.05,4,1,8,0.00
2013-7-15,90.0,81.0,68.5,70.2,65.8,59.6,79,61,46,30.16,30.10,5,2,10,0.00
2013-7-16,92.5,84.5,68.5,69.5,65.1,59.4,76,53,41,30.15,30.08,5,1,10,0.00
2013-7-17,91.4,82.7,69.3,70.9,65.0,59.3,73,56,43,30.15,30.09,5,1,8,0.00
2013-7-18,91.0,80.3,70.2,73.4,68.1,19.5,87,68,45,30.12,30.07,5,1,51,0.00
2013-7-19,90.0,81.3,-25.4,73.6,67.2,-38.7,84,63,45,30.09,29.99,4,1,52,0.00
2013-7-20,95.9,83.1,34.2,68.9,60.5,-16.6,75,49,10,30.02,29.94,6,1,122,0.00
2013-7-21,93.2,82.7,67.1,71.0,60.7,8.8,91,52,10,30.08,29.99,26,4,26,0.06
2013-7-22,108.9,78.0,-19.8,95.6,66.6,-59.1,96,69,10,30.08,30.00,5,1,17,0.33
2013-7-23,90.3,78.2,32.0,75.1,66.9,20.7,83,57,49,30.03,29.97,6,1,104,0.05
2013-7-24,94.3,82.4,-11.0,71.3,64.2,-52.1,81,56,10,30.07,30.01,5,1,11,1.09
2013-7-25,94.3,79.5,-4.0,62.7,48.7,-14.6,61,37,23,30.08,30.01,5,1,49,0.00
2013-7-26,95.7,88.7,74.1,66.1,57.6,45.3,53,36,23,30.00,29.89,10,4,19,0.00
2013-7-27,97.5,88.1,77.0,76.2,68.8,60.0,90,55,38,29.93,29.83,5,2,12,0.00
2013-7-28,99.1,84.4,32.0,74.9,67.3,-50.5,80,56,24,30.04,29.87,4,1,9,0.00
2013-7-29,87.3,77.0,-20.0,71.3,64.7,-59.3,86,57,10,30.22,30.02,100,4,100,0.05
2013-7-30,94.1,81.1,67.1,74.6,65.9,9.7,91,62,10,30.26,30.17,25,1,25,384.90
2013-7-31,32.0,32.0,32.0,66.4,66.4,66.4,0,0,100,30.14,30.13,0,0,0,0.00
2013-8-1,78.3,33.7,32.0,66.4,66.4,65.1,64,2,64,30.05,30.03,2,0,4,0.00
2013-8-2,93.9,51.3,20.5,68.1,22.4,-27.3,98,34,10,30.11,29.93,49,21,120,0.06
2013-8-3,32.0,32.0,32.0,60.6,60.6,60.6,0,0,100,29.99,29.97,0,0,0,0.00
2013-8-4,93.6,80.6,32.0,72.4,65.0,58.7,65,45,34,30.04,29.99,4,1,9,0.00
2013-8-5,95.9,83.0,32.0,74.5,64.6,55.8,71,49,34,29.99,29.89,6,2,12,0.00
2013-8-6,96.8,75.9,32.0,76.1,66.1,-50.8,93,47,10,29.93,29.77,6,2,49,0.00
2013-8-7,95.2,83.0,71.6,78.2,73.3,61.9,89,74,45,29.77,29.70,4,1,8,0.00
2013-8-8,88.2,79.5,68.0,75.0,63.2,53.7,95,58,44,30.04,29.74,4,1,8,0.01
2013-8-9,86.9,76.7,65.7,68.5,62.1,56.0,80,62,44,30.09,30.03,5,2,11,0.00
2013-8-10,100.4,79.1,63.5,70.6,65.1,51.3,85,63,44,30.06,29.99,4,1,9,0.00
2013-8-11,87.3,79.8,65.7,71.9,66.6,56.7,90,65,49,30.02,29.95,5,2,9,0.00
2013-8-12,91.4,83.0,66.4,70.6,65.8,56.3,86,57,40,29.97,29.89,6,2,12,0.01
2013-8-13,91.9,82.2,69.1,75.7,67.5,59.0,90,62,41,29.95,29.90,20,1,20,0.01
2013-8-14,91.4,81.9,67.8,71.4,65.5,60.3,80,59,44,29.98,29.94,4,1,11,0.00
2013-8-15,88.2,76.8,32.0,72.4,65.0,-27.1,87,62,10,30.01,29.96,11,1,53,0.05
2013-8-16,88.3,81.1,68.5,76.7,69.1,64.8,92,68,55,30.00,29.93,4,1,8,0.00
2013-8-17,88.9,79.7,69.4,73.3,69.7,65.8,90,73,49,29.97,29.93,5,1,11,0.00
2013-8-18,90.0,80.1,68.4,77.0,70.4,66.4,96,73,51,29.99,29.93,4,1,9,0.00
2013-8-19,92.5,82.2,68.4,75.1,69.7,64.8,92,68,44,30.03,29.97,8,1,14,0.05
2013-8-20,86.0,77.0,67.6,70.9,65.0,61.9,90,68,53,30.05,30.00,4,1,8,0.00
2013-8-21,88.5,79.6,64.8,69.2,64.1,49.6,85,60,43,30.05,29.96,5,1,12,0.00
2013-8-22,32.0,32.0,32.0,62.4,62.4,62.4,0,0,100,29.93,29.93,0,0,0,0.00
2013-8-23,32.0,32.0,32.0,62.4,62.4,62.4,0,0,100,29.89,29.88,0,0,0,0.00
2013-8-24,88.9,77.8,-11.4,74.2,61.6,-15.2,92,64,10,29.89,29.84,99,2,100,0.00
2013-8-25,74.8,60.2,32.0,67.4,65.4,11.2,88,54,10,29.89,29.76,2,0,73,0.01
2013-8-26,69.4,61.3,-6.3,69.2,61.2,-6.4,99,98,98,29.81,29.73,4,0,11,1.84
2013-8-27,67.5,23.5,-9.6,67.0,21.1,-9.6,99,95,10,29.86,29.80,122,68,122,2.42
2013-8-28,67.8,66.3,63.7,67.5,66.1,63.4,99,99,97,29.96,29.88,2,0,4,0.06
2013-8-29,90.0,76.7,63.9,68.9,62.4,50.2,83,62,47,29.99,29.54,2,0,8,0.00
2013-8-30,78.4,68.3,32.0,66.2,59.2,11.6,78,59,49,30.02,29.94,8,0,8,0.00
2013-8-31,89.6,76.5,67.5,66.5,60.5,52.8,92,60,40,30.06,30.01,4,1,6,0.04
2013-9-1,88.2,75.9,65.3,69.8,64.4,53.7,84,69,44,30.09,28.24,4,1,6,0.00
2013-9-2,84.9,69.6,62.8,66.9,60.3,54.6,90,74,43,28.72,28.27,5,1,5,0.00
2013-9-3,86.7,76.8,69.1,67.5,64.5,56.1,84,67,46,28.71,28.63,5,1,11,0.00
2013-9-4,86.7,76.6,67.6,71.3,63.7,58.0,88,66,46,28.68,28.56,4,0,11,0.00
2013-9-5,86.4,76.1,62.4,70.1,64.0,54.9,86,67,47,28.57,28.41,4,0,8,0.00
2013-9-6,88.2,75.8,62.6,70.6,66.5,58.6,92,74,51,28.09,28.02,4,1,10,0.00
2013-9-7,79.9,72.2,63.9,68.9,65.5,59.0,93,80,64,28.58,28.08,8,1,14,0.00
2013-9-8,86.7,75.4,66.6,73.0,68.7,62.0,97,80,56,28.67,28.53,4,0,9,0.08
2013-9-9,85.8,73.0,64.2,71.4,66.4,62.5,96,81,60,28.70,28.64,4,0,8,0.00
2013-9-10,86.4,77.0,63.5,72.6,64.0,57.5,99,67,43,28.66,28.54,4,1,7,0.00
2013-9-11,78.3,67.5,62.1,70.4,64.1,-41.4,99,90,65,28.60,28.52,7,1,11,0.45
2013-9-12,80.1,67.7,60.6,66.2,62.3,60.1,99,84,54,28.65,28.58,5,1,9,0.00
2013-9-13,80.2,68.4,59.0,68.8,60.5,58.7,99,78,51,28.70,28.63,6,1,11,0.00
2013-9-14,83.7,70.4,61.0,71.1,62.7,60.0,97,79,48,28.70,28.52,6,1,11,0.00
2013-9-15,84.7,72.5,64.6,74.3,66.8,61.9,92,83,62,28.54,28.42,5,1,9,0.00
2013-9-16,81.3,72.9,62.6,72.0,66.7,60.9,95,82,62,28.47,28.34,4,1,11,0.00
2013-9-17,78.3,71.1,-6.0,67.9,62.7,-10.0,92,75,60,28.47,28.35,7,1,11,0.19
2013-9-18,80.6,73.0,61.5,67.2,61.7,54.0,97,68,57,28.46,28.39,5,1,10,0.00
2013-9-19,84.2,73.3,63.5,67.1,63.5,59.9,93,72,54,28.49,28.38,150,1,150,0.00
2013-9-20,80.1,71.8,62.1,71.7,64.6,59.7,98,79,52,28.62,28.48,8,1,13,0.01
2013-9-21,82.9,71.3,60.6,69.5,63.9,58.3,93,78,53,28.71,28.61,4,1,8,0.00
2013-9-22,81.3,73.7,62.2,68.1,63.9,58.3,96,72,56,28.74,28.67,8,2,12,0.00
2013-9-23,81.0,70.9,59.2,64.8,62.8,56.2,95,77,54,28.67,28.57,5,1,9,0.00
2013-9-24,79.3,69.1,60.4,68.9,62.6,14.7,98,81,10,28.55,28.48,97,2,8,0.27
2013-9-25,79.7,71.7,59.5,71.0,63.2,58.7,98,76,59,28.49,28.43,5,1,10,0.27
2013-9-26,86.9,74.3,32.0,70.2,65.5,58.1,94,72,55,28.53,28.45,4,1,11,0.00
2013-9-27,88.5,78.6,64.8,69.1,56.0,9.7,94,50,10,28.49,28.34,9,2,17,0.11
2013-9-28,79.2,75.0,67.5,71.3,66.5,61.5,94,76,60,28.35,28.25,4,1,9,0.00
2013-9-29,74.1,71.0,65.5,65.4,63.2,61.2,91,76,69,28.29,28.23,8,2,15,0.00
2013-9-30,77.9,72.4,65.7,67.8,65.6,60.0,90,80,67,28.32,28.24,5,1,10,0.00
2013-10-1,86.2,76.6,65.1,75.1,66.2,-25.2,95,71,55,28.36,28.27,6,1,11,0.00
2013-10-2,90.7,79.3,66.7,73.0,67.9,60.0,97,70,47,28.40,28.33,5,1,10,0.00
2013-10-3,85.1,77.0,69.8,70.5,67.6,59.7,97,73,59,28.48,28.36,7,1,12,0.00
2013-10-4,86.0,76.4,68.2,74.1,70.4,65.8,93,82,64,28.54,28.41,7,1,12,0.00
2013-10-5,83.5,73.0,61.2,69.4,61.9,56.3,94,69,49,28.66,28.55,6,1,11,0.00
2013-10-6,78.6,65.2,60.1,68.0,58.3,55.4,94,79,50,28.67,28.62,6,1,9,0.04
2013-10-7,77.7,67.7,58.8,69.0,59.0,55.4,99,75,55,28.67,28.61,6,1,9,0.08
2013-10-8,77.0,66.4,54.7,63.6,57.1,51.7,95,74,52,28.70,28.64,6,1,11,0.01
2013-10-9,75.7,65.3,57.4,65.8,59.7,56.0,97,82,66,28.68,28.56,4,0,6,0.00
2013-10-10,74.8,66.9,57.0,65.2,60.9,55.9,97,82,64,28.58,28.38,5,1,11,0.00
2013-10-11,68.4,61.4,55.9,62.5,58.0,55.4,99,89,77,28.45,28.37,4,0,8,0.12
2013-10-12,75.0,65.8,57.4,64.8,61.3,56.8,99,86,66,28.58,28.45,4,0,8,0.00
2013-10-13,79.9,69.3,61.3,67.9,63.5,59.5,99,83,60,28.60,28.54,6,1,10,0.00
2013-10-14,76.6,68.1,60.3,67.0,63.8,58.5,99,87,70,28.62,28.56,7,1,10,0.00
2013-10-15,75.9,69.6,62.1,67.4,63.6,60.7,98,82,62,28.61,28.50,5,1,16,0.00
2013-10-16,83.3,74.2,64.4,66.3,59.1,56.5,92,60,47,28.58,28.52,8,2,13,0.00
2013-10-17,81.0,71.2,60.4,67.0,63.8,56.7,93,79,57,28.62,28.55,6,1,10,0.00
2013-10-18,84.4,72.9,62.1,67.3,63.9,60.3,95,75,53,28.53,28.45,5,2,11,0.00
2013-10-19,82.2,72.0,60.3,68.4,65.5,58.5,96,81,58,28.56,28.48,6,1,13,0.00
2013-10-20,83.7,70.0,61.2,69.5,64.7,59.7,95,85,54,28.61,28.53,4,1,9,0.00
2013-10-21,84.9,72.8,60.1,69.4,63.8,55.6,94,75,49,28.60,28.49,4,1,9,0.00
2013-10-22,82.4,71.9,63.5,68.7,63.3,57.8,92,75,57,28.49,28.37,5,1,11,0.00
2013-10-23,78.1,69.7,63.7,66.2,61.6,55.4,91,76,52,28.53,28.40,4,1,8,0.00
2013-10-24,79.3,67.4,59.0,66.3,59.4,54.2,91,76,57,28.56,28.49,5,1,11,0.00
2013-10-25,84.2,75.6,61.3,65.5,59.1,49.7,92,59,39,28.52,28.45,10,2,16,0.00
2013-10-26,85.1,77.0,65.3,72.0,64.4,49.8,94,67,39,28.60,28.46,9,2,17,0.00
2013-10-27,81.7,71.5,63.1,71.6,65.8,59.5,99,83,55,28.70,28.60,8,1,12,0.00
2013-10-28,81.1,68.6,61.3,68.5,61.3,53.4,94,78,64,28.66,28.44,5,1,11,0.00
2013-10-29,75.6,64.0,57.4,66.9,59.1,53.6,96,85,64,28.49,28.37,8,1,13,0.53
2013-10-30,62.8,59.2,56.1,53.5,46.8,44.0,84,63,59,28.59,28.49,8,2,16,0.00
2013-10-31,70.9,62.6,50.4,52.4,49.2,44.1,80,62,50,28.69,28.60,5,1,11,0.00
2013-11-1,70.0,61.4,54.3,57.4,50.0,43.7,83,67,50,28.68,28.61,6,1,15,0.00
2013-11-2,76.8,65.0,53.2,60.5,55.1,49.8,92,71,50,28.58,28.50,3,0,7,0.00
2013-11-3,76.1,66.9,57.6,63.7,60.4,48.8,95,81,61,28.55,28.49,8,1,14,0.00
2013-11-4,66.4,62.1,58.3,59.8,57.5,49.9,97,85,64,28.45,28.17,11,2,24,0.09
2013-11-5,69.6,66.2,61.2,64.2,60.8,51.8,94,83,70,28.41,28.22,10,2,24,0.01
2013-11-6,79.5,68.6,60.6,62.4,57.6,52.3,88,69,49,28.58,28.41,8,1,14,0.00
2013-11-7,84.6,70.9,56.7,66.8,60.6,52.5,90,72,51,28.57,28.51,4,1,8,0.00
2013-11-8,79.0,67.6,59.7,63.1,58.8,53.3,94,74,53,28.53,28.45,5,1,11,0.00
2013-11-9,69.1,60.0,54.1,58.1,53.0,46.3,90,78,61,28.65,28.53,5,1,14,0.01
2013-11-10,66.6,61.5,53.4,53.9,49.6,46.2,78,65,55,28.64,28.52,8,2,17,0.00
2013-11-11,71.6,61.2,54.3,55.2,50.3,43.0,83,67,56,28.59,28.52,4,0,9,0.00
2013-11-12,70.2,62.9,56.8,49.7,44.6,30.8,69,52,37,28.60,28.54,12,2,22,0.00
2013-11-13,70.0,61.7,56.8,57.6,53.3,41.5,90,74,53,28.62,28.54,7,1,14,0.08
2013-11-14,65.1,57.2,51.8,59.9,54.4,50.1,97,90,78,28.67,28.59,4,0,9,0.51
2013-11-15,58.1,47.6,42.4,49.6,41.2,38.7,90,79,57,28.55,28.42,7,1,11,0.85
2013-11-16,56.3,50.9,42.6,52.3,47.7,40.1,98,89,75,28.47,28.28,12,2,25,0.64
2013-11-17,52.7,49.6,46.0,51.6,48.6,45.2,99,97,90,28.45,28.22,5,0,13,0.43
2013-11-18,56.8,50.7,47.7,55.1,49.8,47.2,99,97,81,28.22,27.93,6,1,11,0.86
2013-11-19,54.3,52.3,50.2,53.8,51.8,49.9,99,98,93,28.26,27.91,9,1,21,1.30
2013-11-20,50.2,46.4,43.2,49.9,44.8,38.1,99,94,77,28.40,28.25,6,1,13,0.15
2013-11-21,59.9,53.3,46.6,45.6,41.9,37.6,76,65,56,28.39,28.09,9,3,17,0.00
2013-11-22,56.5,49.0,46.0,44.0,38.1,31.8,83,67,48,28.20,28.03,10,1,17,0.11
2013-11-23,54.9,48.2,44.2,41.7,36.6,33.6,77,64,54,28.23,28.15,8,1,14,0.04
2013-11-24,55.0,49.8,45.5,43.2,41.4,-14.2,90,73,60,28.46,28.26,146,1,146,0.12
2013-11-25,55.6,46.7,43.0,53.1,44.1,40.9,98,91,81,28.59,28.44,8,0,13,0.34
2013-11-26,46.9,45.5,44.2,39.4,36.2,32.1,78,70,60,28.69,28.59,4,1,8,0.04
2013-11-27,45.9,42.5,40.6,43.1,39.5,34.0,95,89,72,28.69,28.62,4,1,11,0.51
2013-11-28,55.8,44.9,37.9,46.2,39.3,34.6,91,81,62,28.79,28.69,7,1,11,0.63
2013-11-29,54.1,45.1,40.6,40.9,38.6,35.3,87,78,60,28.77,28.69,7,2,11,0.64
2013-11-30,49.6,45.7,41.5,44.4,40.9,36.1,93,83,74,28.70,28.28,4,1,11,0.26
2013-12-1,52.9,47.0,43.7,50.3,44.0,38.7,99,89,73,28.48,28.31,5,1,11,0.98
2013-12-2,50.7,48.6,46.8,45.4,41.7,38.7,83,77,72,28.61,28.48,6,1,12,0.00
2013-12-3,61.9,53.2,44.1,57.2,50.6,42.2,99,91,80,28.75,28.61,4,0,8,0.04
2013-12-4,61.7,48.6,41.2,50.9,43.4,38.4,95,83,56,28.80,28.73,4,0,7,0.00
2013-12-5,59.7,51.4,42.6,51.5,45.4,32.2,92,80,65,28.79,28.72,6,2,12,0.00
2013-12-6,57.7,51.8,42.1,48.5,46.5,39.5,92,82,65,28.76,28.69,8,3,14,0.00
2013-12-7,64.6,51.8,42.3,51.0,42.8,32.7,91,72,43,28.75,28.68,4,1,8,0.00
2013-12-8,59.7,50.4,40.5,49.5,45.1,37.5,96,83,66,28.87,28.74,5,1,8,0.00
2013-12-9,59.2,50.2,42.1,56.4,44.9,40.9,99,83,63,28.91,28.85,5,1,9,0.00
2013-12-10,60.8,49.2,40.8,58.7,45.1,40.6,99,86,67,29.00,28.90,4,1,7,0.00
2013-12-11,55.8,50.8,41.5,50.7,47.3,40.2,97,88,78,29.00,28.93,4,0,8,0.00
2013-12-12,65.1,51.2,43.9,59.6,45.9,42.6,99,83,59,28.93,28.81,4,0,8,0.00
2013-12-13,63.0,51.9,42.3,51.9,47.3,41.2,98,85,61,28.79,28.70,4,1,8,0.00
2013-12-14,58.6,50.1,44.2,50.2,47.6,43.7,99,92,72,28.97,28.80,8,2,8,0.00
2013-12-15,64.0,52.8,43.9,51.7,41.9,34.9,99,70,43,28.99,28.92,8,3,11,0.00
2013-12-16,61.2,49.4,41.9,51.2,45.3,39.7,99,86,63,28.96,28.88,8,2,14,0.00
2013-12-17,58.3,53.0,46.9,51.6,49.6,46.1,97,88,77,28.89,28.77,8,3,8,0.00
2013-12-18,59.9,50.8,44.8,53.3,47.8,44.5,99,90,70,28.78,28.68,8,2,8,0.00
2013-12-19,56.3,52.8,49.8,54.1,51.9,49.6,99,97,84,28.67,28.31,6,2,9,0.44
2013-12-20,51.8,48.5,46.6,51.5,48.2,46.3,99,99,99,28.84,28.27,17,6,22,1.37
2013-12-21,58.6,51.7,45.9,58.4,51.4,45.6,99,99,99,28.93,28.84,6,2,7,0.00
2013-12-22,61.2,52.8,47.5,60.2,52.5,47.2,99,99,88,28.92,28.84,5,1,7,0.01
2013-12-23,61.7,51.9,45.7,60.9,50.7,45.4,99,96,81,28.84,28.67,7,2,7,0.01
2013-12-24,57.2,53.7,50.7,54.8,53.1,50.4,99,98,88,28.66,28.31,13,6,16,0.00
2013-12-25,56.1,53.8,49.6,55.9,52.7,43.4,99,96,76,28.29,27.86,14,6,18,0.60
2013-12-26,51.6,49.8,48.2,44.6,36.8,33.3,79,61,54,28.41,27.93,22,8,25,0.00
2013-12-27,64.2,53.9,48.7,54.2,48.0,37.1,97,81,61,28.47,28.39,10,3,19,0.00
2013-12-28,66.4,55.9,51.1,52.8,46.8,42.0,89,72,53,28.54,28.32,22,4,22,0.00
2013-12-29,53.4,49.0,44.8,42.4,40.0,38.0,81,71,61,28.81,28.54,8,2,14,0.00
2013-12-30,57.7,46.9,39.4,44.6,40.2,37.2,94,78,55,28.83,28.73,6,2,9,0.00
2013-12-31,60.1,47.9,39.9,48.1,39.4,35.7,90,74,42,28.73,28.54,6,1,8,0.00
2014-1-1,69.8,52.1,45.1,53.8,44.9,35.9,94,77,49,28.57,28.50,7,2,10,0.00
2014-1-2,60.6,55.6,50.7,50.1,47.4,44.1,84,74,65,28.50,28.43,17,3,17,0.00